Home   Weather   Kuujjuaq   Past weeks

Flag for Canada Past Weather in Kuujjuaq, Quebec, Canada — Yesterday and Last 2 Weeks

Now
-4 °F

Snow flurries. Passing clouds.


Feels Like: -19 °F
Forecast: -28 / -3 °F
Wind: 8 mph from Northwest

Location: Kuujjuaq

Current Time: Feb 24, 2017 at 2:47:54 pm

Latest Report: Feb 24, 2017 at 2:00 pm


Visibility: 15 mi

Pressure: 30.15 "Hg

Humidity: 49%

Dew Point: -18 °F

Location of KuujjuaqLocation

Past Weather in Kuujjuaq — Graph

°F

Kuujjuaq Temperature Yesterday

Maximum temperature yesterday: 0 °F (at 12:08 am)
Minimum temperature yesterday: -20 °F (at 10:00 pm)
Average temperature yesterday: -6 °F

High & Low Weather Summary for the Past Weeks

 TemperatureHumidityPressure
High14 °F (Feb 21, 2:00 pm)92% (Feb 17, 2:00 am)30.38 "Hg (Feb 17, 2:00 am)
Low-36 °F (Feb 12, 7:00 am)47% (Feb 20, 11:00 am)29.56 "Hg (Feb 22, 4:00 am)
Average-6 °F75%29.97 "Hg
* Reported Feb 9 1:00 pm — Feb 24 1:00 pm, Kuujjuaq, Weather by CustomWeather, © 2017

Note: Actual official high and low records may vary slightly from our data, if they occured in-between our weather recording intervals... More about our weather records

Advertising

Kuujjuaq Weather History for the Previous 24 Hours

Scroll right to see more
 ConditionsComfort  
Time TempWeatherWind HumidityBarometerVisibility
1:00 pm
Fri, Feb 24
-8 °FSnow flurries. Passing clouds.5 mph58%30.14 "Hg15 mi
12:00 pm-9 °FSnow flurries. Passing clouds.2 mph64%30.13 "Hg15 mi
11:00 am-13 °FSnow flurries. Passing clouds.3 mph69%30.13 "Hg15 mi
10:00 am-15 °FSnow flurries. Passing clouds.3 mph76%30.12 "Hg15 mi
9:00 am-24 °FSnow flurries. Passing clouds.2 mph75%30.12 "Hg15 mi
8:00 am-27 °FSnow flurries. Passing clouds.No wind74%30.11 "Hg15 mi
7:00 am-29 °FSnow flurries. Passing clouds.2 mph74%30.10 "Hg15 mi
6:00 am-29 °FSnow flurries. Passing clouds.No wind74%30.09 "Hg15 mi
5:00 am-29 °FSnow flurries. Clear.2 mph74%30.08 "Hg15 mi
4:00 am-27 °FSnow flurries. Clear.2 mph67%30.06 "Hg15 mi
3:00 am-27 °FSnow flurries. Passing clouds.No wind67%30.05 "Hg15 mi
2:00 am-26 °FSnow flurries. Passing clouds.No wind75%30.04 "Hg15 mi
1:00 am-24 °FSnow flurries. Passing clouds.No wind75%30.03 "Hg15 mi
12:31 am-26 °FSnow flurries. Passing clouds.No wind75%30.02 "Hg15 mi
12:00 am-24 °FClear.No wind75%30.02 "Hg15 mi
11:00 pm
Thu, Feb 23
-18 °FClear.2 mph75%30.03 "Hg15 mi
10:00 pm-20 °FClear.2 mph75%30.02 "Hg15 mi
9:00 pm-18 °FPassing clouds.2 mph83%30.02 "Hg15 mi
8:00 pm-18 °FPassing clouds.7 mph83%30.01 "Hg15 mi
7:00 pm-17 °FPassing clouds.7 mph83%30.00 "Hg15 mi
6:00 pm-15 °FPassing clouds.7 mph83%30.00 "Hg15 mi
5:00 pm-13 °FPassing clouds.6 mph83%29.99 "Hg15 mi
4:52 pm-11 °FPassing clouds.6 mph76%29.98 "Hg15 mi
4:00 pm-9 °FPassing clouds.9 mph77%29.96 "Hg15 mi
3:00 pm-8 °FScattered clouds.12 mph70%29.96 "Hg15 mi
2:00 pm-4 °FPartly sunny.9 mph71%29.95 "Hg15 mi
Weather by CustomWeather, © 2017

See weather overviewHow to use our weather pages